Location: Plymouth Village
(34.0436°N, 117.1717°W)
Time: 03:28:01
(UTC+00:00)

DELTA 2 R/B (1) - Pass Details

Date: 10 September 2024
Orbit: 788 x 800 km, 39.6° (Epoch: 09 October)

Event Time Altitude Azimuth Distance (km) Brightness Sun altitude
Exits shadow 12:12:29 19° 289° (WNW) 1,792 4.9 -16.3°
Maximum altitude 12:16:11 48° 356° (N) 1,028 4.2 -15.6°
Drops below altitude 10° 12:21:32 10° 71° (ENE) 2,349 7.5 -14.5°
Sets 12:24:06 0° 77° (ENE) 3,277 8.8 -14.0°
